Wind_Speed
105 106 101 99 103 113 113 109 107 104 102 97 95 93 92 89 84 81 74 69 67 64 67 58 57 53 52 53 54 49 47 45 42 44 42 39 41 40 46 46 44 44 42 45
110 106 96 102 108 117 118 117 111 106 105 99 96 97 96 89 85 84 80 74 72 71 67 61 60 56 52 55 59 55 51 47 48 49 47 48 46 47 49 50 48 47 47 48
109 97 104 106 112 115 125 122 112 111 110 103 100 99 98 93 87 88 84 82 80 79 75 70 66 65 65 63 63 62 60 56 53 52 53 51 53 53 52 51 51 50 51 50
109 106 107 112 116 111 119 121 118 114 114 106 102 98 98 95 87 87 88 87 83 80 77 72 65 61 61 62 62 59 60 59 58 56 56 54 55 57 54 53 54 53 53 52
105 107 107 115 114 115 116 121 121 119 116 112 107 102 95 96 89 87 85 86 85 81 78 76 73 67 63 62 65 67 64 62 62 63 61 62 62 61 58 59 59 58 57 57
110 109 111 111 115 113 117 120 125 123 120 117 106 105 95 96 88 88 89 86 84 81 74 71 71 71 67 67 65 64 63 63 61 58 58 60 64 65 63 65 65 62 59 62
105 108 108 114 118 122 123 124 125 125 126 114 112 112 92 92 92 89 90 88 86 82 79 71 70 73 72 69 68 66 61 61 59 59 58 60 64 61 62 62 63 62 64 64
109 112 108 114 116 120 114 119 131 130 124 113 119 115 101 89 93 89 92 86 84 83 82 79 75 72 73 70 66 65 65 63 61 63 62 62 63 58 60 63 64 64 67 67
104 109 110 117 116 120 118 127 123 132 131 125 122 109 106 98 91 93 94 91 85 84 85 83 79 75 73 73 73 72 69 68 66 65 64 65 64 64 66 66 64 66 67 65
103 108 113 115 121 126 126 122 129 133 137 129 120 112 106 102 92 90 94 94 90 88 86 86 83 79 78 76 75 73 68 66 66 63 64 64 66 69 69 69 71 68 68 68
104 109 111 118 123 123 122 124 129 128 133 135 123 116 109 106 102 93 93 96 97 92 88 86 84 83 81 77 76 73 70 71 67 64 62 61 65 66 68 66 68 68 68 68
103 111 113 116 118 124 125 125 130 131 130 133 131 118 112 111 104 97 93 96 98 97 92 88 84 83 82 80 79 80 77 74 72 69 66 65 64 63 63 65 68 70 70 68
106 109 113 119 123 124 127 125 124 130 134 137 131 119 119 112 109 104 98 98 99 101 100 94 89 87 86 84 83 82 81 80 78 75 71 68 66 69 70 71 70 68 67 68
106 108 112 117 118 122 124 127 127 129 133 133 135 117 121 115 113 110 105 104 104 103 102 101 96 92 89 88 88 86 85 84 82 81 80 78 77 75 74 72 71 71 72 73
102 105 109 114 121 125 127 129 129 131 127 134 126 118 120 117 115 115 112 111 107 105 103 102 100 98 97 94 92 90 89 87 85 83 82 81 82 81 80 79 78 77 78 79
98 97 102 107 111 119 124 124 130 127 119 122 123 118 111 123 122 117 118 116 112 109 108 106 103 101 100 98 96 95 94 93 90 86 85 85 85 82 82 81 82 82 84 85
97 96 97 98 105 112 116 115 126 124 121 120 121 113 101 120 125 120 119 119 116 113 111 110 108 104 103 103 102 100 99 96 93 91 89 89 89 88 87 87 86 86 87 91
91 96 98 95 103 108 99 109 115 119 122 122 119 117 107 107 125 130 127 123 119 116 115 115 113 109 109 110 109 108 104 101 98 96 94 93 93 93 93 93 93 95 96 98
86 94 94 97 100 97 97 96 104 113 117 125 122 122 124 111 121 123 123 124 121 120 119 122 122 119 118 117 113 111 108 106 103 100 99 99 99 98 98 98 98 99 100 101
79 88 93 95 98 96 81 100 103 110 110 104 116 120 125 132 139 115 111 128 131 124 119 123 127 127 123 119 117 115 112 111 107 105 107 105 104 103 104 103 103 104 104 105
75 81 88 92 99 91 86 100 107 113 95 100 114 113 116 127 129 102 123 128 133 134 127 121 126 131 128 125 124 120 115 111 110 113 112 110 110 110 110 109 109 109 110 111
69 78 81 86 95 84 89 97 109 107 105 105 106 106 107 111 114 105 121 134 133 138 139 137 132 134 134 130 128 126 124 120 120 119 117 117 118 118 117 116 116 116 116 116
65 72 75 79 82 75 90 97 103 108 107 107 106 107 103 100 101 103 113 122 124 129 133 137 136 137 136 133 130 128 126 128 128 126 124 124 123 124 123 123 122 122 122 121
63 67 68 72 62 77 84 88 94 99 101 106 108 105 102 95 96 95 101 109 114 117 120 123 127 134 140 140 135 132 131 130 130 130 129 129 129 130 129 128 127 126 126 126
59 62 62 61 62 67 74 83 86 89 93 98 101 102 102 96 94 88 93 98 101 104 108 113 116 121 133 140 139 136 137 137 135 133 132 130 129 132 134 134 132 131 130 130
62 62 60 52 58 59 63 71 75 78 83 84 88 92 91 93 93 90 91 91 91 96 99 100 103 105 110 116 122 124 125 129 134 136 132 129 126 125 125 127 127 129 131 133
Wind_Direction
224 223 220 222 223 217 217 219 215 217 220 222 224 226 230 227 232 237 238 237 238 239 242 243 245 243 242 245 248 255 262 263 264 271 273 267 274 272 270 271 273 280 276 277
221 220 218 219 221 218 218 218 215 218 219 220 225 225 231 231 231 234 237 238 239 242 244 245 241 241 244 254 253 251 254 258 265 268 269 270 271 269 271 271 272 276 277 280
221 215 216 216 220 219 217 218 214 215 220 220 222 223 228 231 232 233 235 237 241 244 245 244 243 246 253 258 254 253 256 259 263 265 268 264 270 270 269 271 270 273 275 280
219 215 213 217 219 220 222 218 216 216 220 220 221 220 226 231 233 236 238 240 242 243 242 243 247 251 250 251 249 251 255 258 263 265 262 264 269 267 269 269 272 273 274 278
218 216 214 217 219 220 219 220 217 216 219 220 218 218 225 229 232 234 237 239 241 245 248 250 250 251 250 253 249 253 255 257 259 261 262 265 265 264 269 270 270 273 272 277
218 215 215 217 219 219 220 221 218 216 218 219 218 217 218 226 228 233 236 237 240 243 245 249 251 252 249 249 250 251 251 254 257 258 264 267 264 263 268 269 270 269 274 275
220 215 215 215 218 221 217 220 221 217 217 216 219 219 210 226 226 231 234 236 239 242 244 244 248 250 251 251 251 254 255 258 256 258 260 263 263 264 265 267 272 268 272 276
220 217 216 215 219 223 220 224 224 219 217 214 220 218 209 220 226 229 234 236 238 240 242 242 241 245 252 254 255 258 259 257 262 259 259 261 265 265 265 266 270 271 273 278
221 218 216 216 217 222 219 225 226 222 218 214 217 217 212 216 225 228 233 235 236 238 241 242 245 245 248 252 257 259 262 263 264 260 260 259 261 263 266 267 270 270 271 276
220 218 216 216 219 220 219 221 226 225 222 218 215 215 212 217 220 226 232 235 235 237 239 242 245 246 249 252 256 260 261 262 264 262 260 259 261 262 267 269 270 271 275 279
219 220 217 217 219 222 223 222 226 228 226 221 212 214 215 217 220 222 228 235 235 236 239 241 243 246 248 250 252 255 258 262 264 262 263 261 263 263 267 268 270 271 275 279
221 220 219 219 219 223 224 222 223 227 227 227 217 210 215 217 220 222 225 232 237 237 236 238 240 243 246 247 249 251 253 256 259 263 264 263 264 264 266 268 270 273 276 276
224 223 220 220 218 222 225 226 226 227 228 228 223 209 214 217 219 223 223 229 233 237 237 236 238 240 242 244 246 249 251 254 257 259 260 261 262 265 266 268 272 273 273 275
225 225 223 222 222 222 225 226 227 229 229 232 229 214 214 217 219 222 225 227 230 234 238 238 237 239 241 244 246 247 249 252 255 257 259 260 263 265 268 268 270 270 273 276
226 226 225 225 225 224 224 225 227 228 229 232 232 221 213 215 222 224 226 229 231 234 236 239 241 241 242 242 244 247 248 250 252 255 258 260 262 265 268 269 270 273 275 276
227 228 226 227 229 228 228 228 230 231 232 235 235 229 214 219 221 225 228 230 231 233 234 237 239 243 244 245 246 247 250 251 252 254 256 259 262 262 264 268 270 272 273 274
226 228 228 227 230 231 230 231 232 233 233 235 236 235 225 222 220 222 227 230 232 234 237 238 237 238 242 245 248 249 249 251 252 253 256 258 260 263 266 268 269 270 269 270
226 228 229 228 231 232 231 231 233 233 235 237 237 235 230 223 221 223 224 228 229 232 236 238 240 239 239 241 245 247 249 251 252 254 256 257 258 260 262 263 264 265 268 271
228 230 230 231 232 234 232 234 235 235 234 236 238 237 236 227 227 225 223 227 230 232 234 238 240 241 241 242 242 245 248 250 253 255 256 257 258 260 262 264 266 267 269 270
233 231 233 234 235 235 232 234 235 236 234 238 239 238 236 235 235 221 227 228 227 229 233 239 242 244 244 245 246 247 248 250 251 253 254 256 259 260 262 264 266 268 269 271
233 234 233 233 237 234 229 234 236 239 237 233 239 238 238 236 237 221 231 235 229 230 233 239 245 246 246 247 249 249 250 252 253 255 258 259 260 261 262 263 265 266 268 270
237 236 235 233 236 232 232 233 237 240 238 238 241 243 242 240 239 232 234 237 235 232 235 240 244 244 245 247 249 251 253 253 253 254 256 258 259 261 262 264 265 267 268 270
238 241 239 237 237 232 232 234 236 239 239 240 240 243 243 243 240 238 237 238 239 240 243 245 244 242 243 246 249 251 252 253 254 256 256 257 258 259 261 263 265 267 268 270
241 242 242 242 242 237 238 239 239 241 242 242 242 243 245 244 244 241 240 241 243 242 242 244 244 244 243 244 246 249 251 254 256 257 258 258 259 260 261 263 264 266 267 269
242 245 244 244 241 241 241 241 242 242 241 242 244 245 246 246 247 243 243 241 242 245 246 246 246 246 247 248 249 250 251 253 255 257 258 259 261 261 262 263 264 266 267 269
240 243 245 242 241 240 242 241 242 243 245 244 245 245 246 246 246 244 243 243 243 243 246 247 248 249 250 250 251 253 254 255 255 256 259 260 262 264 264 265 267 267 268 269
Height
10556 10564 10591 10615 10625 10632 10644 10662 10677 10689 10702 10716 10732 10744 10747 10761 10774 10783 10790 10798 10805 10811 10810 10826 10831 10834 10836 10837 10840 10844 10846 10848 10849 10850 10851 10851 10850 10849 10848 10848 10849 10848 10847 10844
10525 10551 10590 10585 10595 10608 10626 10635 10662 10674 10683 10701 10715 10732 10735 10754 10768 10772 10778 10788 10794 10797 10804 10813 10818 10822 10824 10827 10831 10834 10836 10840 10840 10841 10842 10840 10840 10838 10838 10838 10839 10838 10836 10835
10512 10559 10545 10563 10574 10588 10603 10619 10643 10650 10661 10680 10694 10718 10722 10737 10756 10764 10771 10776 10782 10786 10790 10797 10805 10810 10814 10818 10818 10822 10827 10830 10830 10831 10832 10829 10829 10829 10828 10829 10830 10828 10826 10825
10491 10516 10526 10540 10555 10571 10584 10604 10619 10633 10641 10662 10681 10706 10715 10727 10748 10757 10759 10764 10767 10770 10777 10786 10796 10799 10802 10801 10806 10812 10814 10816 10819 10820 10819 10818 10818 10816 10818 10819 10819 10818 10815 10814
10493 10501 10513 10523 10546 10556 10568 10583 10601 10610 10624 10636 10664 10691 10715 10718 10737 10743 10744 10749 10752 10757 10766 10774 10781 10785 10787 10789 10795 10797 10801 10803 10804 10805 10807 10807 10805 10804 10808 10808 10808 10807 10806 10804
10458 10478 10490 10518 10526 10532 10551 10564 10575 10589 10601 10617 10658 10673 10696 10706 10724 10725 10727 10734 10738 10744 10753 10758 10765 10768 10772 10773 10778 10781 10785 10788 10791 10793 10794 10794 10792 10792 10796 10795 10796 10795 10795 10792
10455 10471 10485 10493 10501 10513 10523 10542 10555 10567 10576 10617 10630 10644 10701 10691 10705 10707 10711 10719 10722 10732 10740 10743 10747 10750 10753 10758 10763 10770 10775 10776 10778 10781 10782 10778 10776 10780 10782 10782 10781 10783 10781 10779
10422 10441 10469 10491 10495 10512 10532 10532 10530 10547 10568 10609 10601 10627 10680 10675 10683 10692 10695 10704 10709 10713 10720 10724 10730 10736 10738 10743 10748 10754 10759 10761 10765 10767 10767 10766 10765 10767 10767 10767 10767 10770 10767 10766
10411 10432 10451 10458 10475 10480 10505 10500 10539 10527 10540 10566 10578 10628 10653 10663 10664 10676 10677 10684 10693 10697 10700 10707 10715 10722 10727 10731 10734 10738 10744 10748 10751 10750 10751 10753 10753 10753 10752 10752 10755 10752 10752 10753
10396 10414 10430 10441 10449 10455 10473 10497 10489 10498 10519 10545 10573 10611 10639 10649 10653 10658 10662 10666 10672 10678 10687 10693 10701 10707 10712 10716 10720 10724 10725 10729 10732 10734 10735 10737 10739 10740 10739 10740 10738 10738 10738 10739
10378 10392 10412 10420 10429 10449 10461 10474 10481 10492 10502 10519 10557 10586 10615 10627 10636 10638 10643 10645 10651 10661 10671 10678 10684 10689 10695 10700 10703 10706 10709 10710 10713 10716 10720 10723 10724 10725 10725 10725 10722 10723 10726 10724
10362 10369 10384 10401 10419 10426 10436 10446 10455 10464 10484 10503 10531 10570 10592 10606 10618 10625 10627 10627 10631 10642 10652 10659 10666 10672 10676 10679 10682 10686 10690 10695 10696 10700 10705 10706 10708 10708 10709 10707 10708 10710 10709 10709
10340 10356 10370 10378 10394 10405 10412 10434 10449 10459 10465 10471 10502 10562 10569 10586 10599 10605 10608 10608 10610 10615 10627 10639 10646 10650 10653 10658 10662 10666 10672 10676 10681 10685 10688 10690 10691 10692 10692 10693 10692 10693 10693 10692
10318 10333 10349 10364 10384 10392 10399 10413 10426 10438 10444 10461 10474 10545 10556 10573 10581 10583 10590 10587 10587 10595 10604 10615 10625 10630 10635 10639 10644 10648 10653 10658 10663 10668 10671 10673 10673 10674 10676 10677 10677 10676 10676 10676
10302 10317 10332 10347 10357 10369 10374 10388 10403 10410 10435 10433 10470 10509 10547 10556 10560 10563 10570 10570 10575 10582 10589 10594 10603 10610 10613 10618 10623 10628 10633 10639 10644 10650 10655 10657 10657 10660 10661 10661 10661 10662 10661 10659
10292 10309 10320 10333 10345 10355 10366 10381 10387 10405 10434 10439 10457 10478 10542 10538 10534 10548 10553 10557 10561 10564 10569 10573 10579 10589 10595 10600 10607 10611 10616 10620 10626 10633 10636 10639 10641 10643 10643 10644 10645 10644 10643 10640
10282 10292 10304 10325 10327 10332 10347 10383 10379 10398 10408 10424 10433 10469 10508 10496 10516 10527 10530 10538 10547 10548 10549 10552 10555 10566 10575 10578 10583 10590 10595 10602 10609 10613 10617 10620 10622 10625 10625 10624 10624 10623 10623 10621
10272 10278 10288 10306 10303 10308 10356 10351 10365 10378 10393 10401 10414 10442 10468 10482 10499 10490 10496 10510 10525 10527 10526 10527 10530 10541 10549 10552 10560 10564 10574 10581 10588 10594 10598 10601 10603 10604 10604 10605 10606 10605 10603 10602
10257 10262 10278 10283 10288 10309 10329 10352 10353 10352 10370 10375 10400 10423 10431 10461 10435 10456 10497 10507 10509 10501 10500 10493 10498 10509 10512 10522 10537 10546 10555 10561 10568 10574 10575 10576 10578 10581 10583 10584 10585 10584 10582 10579
10242 10249 10258 10270 10275 10291 10341 10315 10322 10320 10346 10373 10369 10388 10404 10416 10393 10470 10483 10457 10458 10465 10475 10477 10480 10480 10491 10508 10515 10524 10533 10539 10549 10553 10550 10555 10559 10560 10560 10561 10561 10560 10560 10557
10221 10231 10244 10255 10253 10289 10325 10301 10295 10291 10351 10340 10330 10354 10367 10371 10393 10463 10435 10428 10445 10450 10457 10465 10465 10465 10476 10488 10492 10504 10514 10525 10531 10526 10530 10535 10536 10536 10536 10537 10537 10536 10535 10533
10210 10211 10225 10234 10234 10280 10286 10278 10274 10289 10310 10320 10323 10332 10345 10357 10382 10421 10411 10402 10413 10426 10434 10439 10439 10448 10456 10466 10472 10482 10491 10500 10498 10498 10505 10507 10507 10509 10511 10511 10512 10511 10509 10509
10196 10195 10202 10216 10231 10266 10250 10250 10254 10263 10285 10295 10307 10310 10318 10334 10356 10378 10383 10379 10398 10408 10408 10410 10418 10427 10437 10446 10450 10461 10468 10462 10465 10472 10480 10481 10482 10482 10484 10485 10485 10485 10485 10484
10181 10184 10193 10196 10232 10227 10231 10239 10244 10254 10267 10274 10284 10292 10298 10317 10329 10345 10353 10360 10363 10370 10378 10381 10391 10403 10411 10417 10424 10433 10436 10436 10438 10443 10449 10452 10455 10454 10456 10457 10458 10460 10460 10459
10172 10173 10182 10192 10200 10205 10213 10213 10223 10232 10243 10252 10261 10270 10278 10292 10301 10317 10323 10330 10338 10347 10353 10359 10368 10376 10384 10388 10399 10405 10408 10407 10411 10415 10417 10420 10422 10424 10425 10426 10426 10427 10429 10429
10159 10161 10165 10180 10181 10189 10191 10193 10203 10214 10219 10230 10240 10246 10259 10268 10275 10287 10294 10303 10315 10324 10329 10338 10346 10352 10356 10360 10367 10374 10379 10380 10383 10385 10387 10390 10391 10393 10392 10392 10395 10397 10398 10398